EW5545 Weather Reports


Display with metric or nautical units.
time (UTC)temp
F
wind
direction
speed
MPH
gust
MPH
rain 1hr
in
rain 24hr
in
rain mn
in
humidity
%
barometer
mb
20260905111019 98 38 1.0 6.0 0.00 0.00 0.00 21 1017.8
20260905110518 99 225 0.0 2.0 0.00 0.00 0.00 21 1017.9
20260905110019 98 36 0.0 5.0 0.00 0.00 0.00 22 1017.9
20260905105518 98 59 2.0 5.0 0.00 0.00 0.00 22 1017.9
20260905104520 97 163 2.0 5.0 0.00 0.00 0.00 22 1017.9
20260905104020 97 88 1.0 5.0 0.00 0.00 0.00 22 1017.9
20260905103518 96 176 3.0 6.0 0.00 0.00 0.00 23 1017.9
20260905102518 95 6 1.0 3.0 0.00 0.00 0.00 23 1018.0
20260905102020 95 26 1.0 5.0 0.00 0.00 0.00 23 1018.1
20260905101519 95 354 1.0 6.0 0.00 0.00 0.00 23 1018.2
20260905101020 96 164 1.0 3.0 0.00 0.00 0.00 24 1018.2
20260905100021 96 222 2.0 5.0 0.00 0.00 0.00 23 1018.3
20260905095510 95 187 1.0 3.0 0.00 0.00 0.00 23 1018.4
20260905095020 95 49 2.0 3.0 0.00 0.00 0.00 24 1018.4
20260905094520 95 187 1.0 6.0 0.00 0.00 0.00 23 1018.5
20260905094020 94 219 1.0 5.0 0.00 0.00 0.00 24 1018.6
20260905093519 94 201 2.0 5.0 0.00 0.00 0.00 24 1018.6
20260905093021 95 216 3.0 5.0 0.00 0.00 0.00 23 1018.5
20260905092511 94 188 1.0 3.0 0.00 0.00 0.00 24 1018.5
20260905092012 94 163 1.0 6.0 0.00 0.00 0.00 24 1018.5
20260905091518 93 232 3.0 6.0 0.00 0.00 0.00 24 1018.6
20260905090511 93 189 1.0 3.0 0.00 0.00 0.00 25 1018.6
20260905090020 93 214 3.0 6.0 0.00 0.00 0.00 25 1018.6
20260905085518 93 242 0.0 3.0 0.00 0.00 0.00 25 1018.6
20260905085019 92 195 1.0 3.0 0.00 0.00 0.00 25 1018.6
20260905084517 92 250 1.0 3.0 0.00 0.00 0.00 25 1018.6
20260905084021 92 225 1.0 3.0 0.00 0.00 0.00 25 1018.6
20260905083518 91 156 2.0 5.0 0.00 0.00 0.00 26 1018.6
20260905083012 91 216 1.0 6.0 0.00 0.00 0.00 26 1018.6
20260905082019 91 114 2.0 3.0 0.00 0.00 0.00 26 1018.6
20260905081519 91 199 3.0 6.0 0.00 0.00 0.00 26 1018.6
20260905081019 91 217 1.0 3.0 0.00 0.00 0.00 27 1018.5
20260905080019 90 233 2.0 3.0 0.00 0.00 0.00 27 1018.5
20260905075511 90 229 2.0 3.0 0.00 0.00 0.00 28 1018.4
20260905075017 89 249 2.0 5.0 0.00 0.00 0.00 27 1018.3
20260905074020 89 228 3.0 5.0 0.00 0.00 0.00 28 1018.4
20260905073519 88 172 2.0 6.0 0.00 0.00 0.00 28 1018.4
20260905073021 88 239 1.0 3.0 0.00 0.00 0.00 28 1018.4
20260905072518 88 238 1.0 3.0 0.00 0.00 0.00 28 1018.4
20260905072020 88 212 1.0 3.0 0.00 0.00 0.00 29 1018.3
20260905071519 87 188 2.0 3.0 0.00 0.00 0.00 29 1018.3
20260905071019 87 224 1.0 3.0 0.00 0.00 0.00 30 1018.3
20260905070520 86 246 1.0 3.0 0.00 0.00 0.00 30 1018.2
20260905065516 85 244 1.0 3.0 0.00 0.00 0.00 32 1018.2
20260905065020 84 239 1.0 3.0 0.00 0.00 0.00 34 1018.2
20260905064518 83 237 0.0 2.0 0.00 0.00 0.00 36 1018.2
20260905064019 82 237 0.0 2.0 0.00 0.00 0.00 36 1018.1
20260905063513 81 237 0.0 2.0 0.00 0.00 0.00 39 1018.2
20260905063020 80 237 1.0 2.0 0.00 0.00 0.00 39 1018.1
20260905062520 80 237 0.0 1.0 0.00 0.00 0.00 40 1018.2
20260905062012 79 237 1.0 2.0 0.00 0.00 0.00 40 1018.2
20260905061519 78 237 0.0 1.0 0.00 0.00 0.00 41 1018.2
20260905061019 77 237 0.0 1.0 0.00 0.00 0.00 42 1018.2
20260905060518 77 237 0.0 1.0 0.00 0.00 0.00 44 1018.3
20260905055520 75 237 0.0 1.0 0.00 0.00 0.00 44 1018.3
20260905055019 74 237 1.0 1.0 0.00 0.00 0.00 44 1018.2
20260905054523 74 237 0.0 1.0 0.00 0.00 0.00 45 1018.2
20260905053513 73 237 0.0 1.0 0.00 0.00 0.00 45 1018.2
20260905053020 73 237 1.0 1.0 0.00 0.00 0.00 44 1018.2
20260905052012 72 237 1.0 2.0 0.00 0.00 0.00 45 1018.3
20260905051512 71 237 0.0 2.0 0.00 0.00 0.00 46 1018.2
20260905050518 71 237 0.0 1.0 0.00 0.00 0.00 46 1018.2
20260905050019 71 237 1.0 2.0 0.00 0.00 0.00 46 1018.2
20260905045020 70 237 1.0 3.0 0.00 0.00 0.00 47 1018.1
20260905044510 69 237 2.0 3.0 0.00 0.00 0.00 47 1018.2
20260905044019 69 237 0.0 1.0 0.00 0.00 0.00 48 1018.2
20260905043517 69 237 1.0 3.0 0.00 0.00 0.00 47 1018.1
20260905043018 69 237 1.0 3.0 0.00 0.00 0.00 49 1018.1
20260905042512 69 237 1.0 2.0 0.00 0.00 0.00 50 1018.1
20260905042020 68 237 0.0 1.0 0.00 0.00 0.00 51 1017.9
20260905041019 69 237 1.0 2.0 0.00 0.00 0.00 50 1018.0
20260905040520 69 237 1.0 2.0 0.00 0.00 0.00 50 1018.0
20260905040020 69 237 0.0 1.0 0.00 0.00 0.00 50 1017.9
20260905035518 69 237 0.0 1.0 0.00 0.00 0.00 50 1017.9
20260905035012 69 237 1.0 2.0 0.00 0.00 0.00 50 1017.9
20260905034520 70 237 1.0 2.0 0.00 0.00 0.00 49 1018.0
20260905034020 70 237 1.0 2.0 0.00 0.00 0.00 48 1017.9
20260905033518 70 237 1.0 2.0 0.00 0.00 0.00 48 1017.9
20260905033020 70 237 1.0 2.0 0.00 0.00 0.00 48 1017.9
20260905032511 70 237 1.0 2.0 0.00 0.00 0.00 49 1017.8
20260905032021 69 237 1.0 3.0 0.00 0.00 0.00 50 1017.8
20260905031020 70 251 0.0 2.0 0.00 0.00 0.00 50 1017.7
20260905030020 73 251 1.0 2.0 0.00 0.00 0.00 45 1017.6
20260905025518 72 251 1.0 3.0 0.00 0.00 0.00 46 1017.6
20260905025019 70 251 0.0 2.0 0.00 0.00 0.00 51 1017.7
20260905024519 70 251 1.0 2.0 0.00 0.00 0.00 52 1017.8
20260905024019 70 251 1.0 2.0 0.00 0.00 0.00 53 1017.7
20260905023518 71 251 1.0 2.0 0.00 0.00 0.00 52 1017.8
20260905023019 72 251 0.0 1.0 0.00 0.00 0.00 48 1017.8
20260905022517 71 251 1.0 3.0 0.00 0.00 0.00 50 1017.8
20260905022019 70 251 1.0 1.0 0.00 0.00 0.00 55 1017.8
20260905021020 71 251 0.0 1.0 0.00 0.00 0.00 53 1017.8
20260905020518 70 251 0.0 1.0 0.00 0.00 0.00 55 1017.8
20260905020020 69 251 1.0 1.0 0.00 0.00 0.00 56 1017.9
20260905015512 70 251 0.0 1.0 0.00 0.00 0.00 56 1017.9
20260905015020 70 251 0.0 2.0 0.00 0.00 0.00 56 1018.0
20260905014519 69 251 0.0 2.0 0.00 0.00 0.00 57 1018.0
20260905014026 69 251 1.0 1.0 0.00 0.00 0.00 58 1018.0
20260905013510 70 251 1.0 1.0 0.00 0.00 0.00 57 1018.0
20260905013020 70 251 0.0 2.0 0.00 0.00 0.00 57 1018.0
20260905012516 69 251 1.0 2.0 0.00 0.00 0.00 59 1018.1
20260905012019 70 251 1.0 2.0 0.00 0.00 0.00 59 1018.1
20260905011020 71 251 1.0 2.0 0.00 0.00 0.00 58 1018.1
20260905010519 70 251 0.0 2.0 0.00 0.00 0.00 60 1018.1
20260905010020 70 251 0.0 1.0 0.00 0.00 0.00 60 1018.1
20260905005518 70 251 1.0 1.0 0.00 0.00 0.00 60 1018.1
20260905005019 69 251 0.0 1.0 0.00 0.00 0.00 62 1018.1
20260905004518 69 251 0.0 2.0 0.00 0.00 0.00 63 1018.1
20260905004019 69 251 1.0 2.0 0.00 0.00 0.00 63 1018.2
20260905003511 69 251 1.0 2.0 0.00 0.00 0.00 63 1018.2
20260905002511 69 251 1.0 2.0 0.00 0.00 0.00 63 1018.1
20260905002019 71 252 1.0 2.0 0.00 0.00 0.00 61 1018.1
20260905001519 70 254 1.0 2.0 0.00 0.00 0.00 63 1018.0
20260905001019 69 254 1.0 2.0 0.00 0.00 0.00 66 1018.0
20260905000020 70 254 1.0 1.0 0.00 0.00 0.00 66 1018.1
20260904235518 70 254 0.0 1.0 0.00 0.00 0.00 65 1018.1
20260904234518 70 254 0.0 1.0 0.00 0.00 0.00 67 1018.1
20260904234019 70 254 0.0 1.0 0.00 0.00 0.00 67 1018.3
20260904233517 69 254 0.0 1.0 0.00 0.00 0.00 67 1018.3
20260904232518 70 254 1.0 2.0 0.00 0.00 0.00 66 1018.4
20260904231519 72 254 0.0 1.0 0.00 0.00 0.00 62 1018.3
20260904231019 72 254 0.0 1.0 0.00 0.00 0.00 63 1018.3
20260904230518 72 254 0.0 1.0 0.00 0.00 0.00 63 1018.3
20260904225518 71 254 0.0 1.0 0.00 0.00 0.00 64 1018.4
20260904225019 71 254 0.0 1.0 0.00 0.00 0.00 65 1018.3
20260904224519 71 254 0.0 1.0 0.00 0.00 0.00 65 1018.4
20260904223518 71 254 0.0 1.0 0.00 0.00 0.00 64 1018.4
20260904223020 72 254 1.0 2.0 0.00 0.00 0.00 63 1018.5
20260904222518 73 254 0.0 1.0 0.00 0.00 0.00 61 1018.5
20260904222019 73 254 1.0 2.0 0.00 0.00 0.00 61 1018.5
20260904220517 73 256 0.0 2.0 0.00 0.00 0.00 62 1018.6
20260904220022 73 256 0.0 1.0 0.00 0.00 0.00 63 1018.6
20260904215518 73 256 0.0 1.0 0.00 0.00 0.00 63 1018.6
20260904214518 74 256 0.0 2.0 0.00 0.00 0.00 63 1018.6
20260904213518 74 327 0.0 2.0 0.00 0.00 0.00 63 1018.5
20260904213021 74 317 1.0 2.0 0.00 0.00 0.00 64 1018.5
20260904212512 74 300 0.0 1.0 0.00 0.00 0.00 64 1018.6
20260904212018 74 299 0.0 1.0 0.00 0.00 0.00 64 1018.6
20260904211019 74 299 0.0 0.0 0.00 0.00 0.00 63 1018.6
20260904210517 74 297 0.0 2.0 0.00 0.00 0.00 63 1018.6
20260904210013 74 273 1.0 3.0 0.00 0.00 0.00 64 1018.6
20260904205518 74 322 0.0 3.0 0.00 0.00 0.00 65 1018.7
20260904205019 74 311 1.0 3.0 0.00 0.00 0.00 67 1018.6
20260904204019 75 254 0.0 0.0 0.00 0.00 0.00 68 1018.6
20260904203518 75 254 0.0 1.0 0.00 0.00 0.00 67 1018.7
20260904203020 76 254 0.0 1.0 0.00 0.00 0.00 66 1018.6
20260904202518 76 47 0.0 1.0 0.00 0.00 0.00 64 1018.6
20260904202018 76 330 0.0 1.0 0.00 0.00 0.00 64 1018.6
20260904201020 76 49 0.0 2.0 0.00 0.00 0.00 66 1018.7
20260904200519 75 45 0.0 2.0 0.00 0.00 0.00 69 1018.7
20260904200012 75 355 0.0 3.0 0.00 0.00 0.00 70 1018.8
20260904195518 75 254 0.0 3.0 0.00 0.00 0.00 70 1018.8
20260904195019 76 265 0.0 2.0 0.00 0.00 0.00 69 1018.7
20260904194520 76 25 0.0 1.0 0.00 0.00 0.00 68 1018.7
20260904194012 77 56 0.0 2.0 0.00 0.00 0.00 70 1018.7
20260904193518 77 56 1.0 2.0 0.00 0.00 0.00 70 1018.7
20260904193019 77 72 0.0 1.0 0.00 0.00 0.00 69 1018.7
20260904192511 78 72 0.0 2.0 0.00 0.00 0.00 68 1018.7
20260904192019 78 43 1.0 2.0 0.00 0.00 0.00 69 1018.7
20260904191518 78 54 1.0 3.0 0.00 0.00 0.00 69 1018.6
20260904191019 78 55 1.0 3.0 0.00 0.00 0.00 69 1018.6
20260904190519 78 270 1.0 2.0 0.00 0.00 0.00 69 1018.6
20260904185519 78 263 0.0 2.0 0.00 0.00 0.00 68 1018.6
20260904184519 79 291 0.0 2.0 0.00 0.00 0.00 67 1018.5
20260904184019 79 337 1.0 3.0 0.00 0.00 0.00 67 1018.5
20260904183518 79 44 2.0 3.0 0.00 0.00 0.00 66 1018.4
20260904183019 79 51 2.0 5.0 0.00 0.00 0.00 67 1018.4
20260904182018 79 47 4.0 7.0 0.00 0.00 0.00 66 1018.2
20260904181517 79 52 3.0 6.0 0.00 0.00 0.00 67 1018.2
20260904181019 79 38 3.0 7.0 0.00 0.00 0.00 66 1018.1
20260904180518 80 40 3.0 7.0 0.00 0.00 0.00 66 1018.1
20260904180020 80 46 2.0 6.0 0.00 0.00 0.00 65 1018.1
20260904175519 80 46 5.0 7.0 0.00 0.00 0.00 64 1018.0
20260904175019 80 44 4.0 8.0 0.00 0.00 0.00 63 1017.9
20260904174517 80 45 4.0 6.0 0.00 0.00 0.00 62 1017.8
20260904174018 81 45 2.0 5.0 0.00 0.00 0.00 61 1017.8
20260904173518 81 49 1.0 3.0 0.00 0.00 0.00 59 1017.8
20260904172519 82 49 2.0 7.0 0.00 0.00 0.00 56 1017.8
20260904172018 82 45 3.0 7.0 0.00 0.00 0.00 54 1017.8
20260904171518 82 61 3.0 8.0 0.00 0.00 0.00 53 1017.7
20260904170515 83 50 3.0 5.0 0.00 0.00 0.00 53 1017.6
20260904170019 83 44 2.0 6.0 0.00 0.00 0.00 54 1017.6
20260904165020 83 45 4.0 8.0 0.00 0.00 0.00 52 1017.5
20260904164512 84 50 7.0 10.0 0.00 0.00 0.00 51 1017.5
20260904164013 84 42 5.0 8.0 0.00 0.00 0.00 49 1017.5
20260904163518 84 55 4.0 9.0 0.00 0.00 0.00 48 1017.5
20260904163019 84 45 6.0 10.0 0.00 0.00 0.00 48 1017.6
20260904162510 85 38 9.0 12.0 0.00 0.00 0.00 47 1017.5
20260904161020 86 41 5.0 12.0 0.00 0.00 0.00 41 1017.5
20260904160510 86 45 6.0 13.0 0.00 0.00 0.00 37 1017.6
20260904160020 86 47 5.0 12.0 0.00 0.00 0.00 36 1017.5
20260904155510 87 47 7.0 12.0 0.00 0.00 0.00 35 1017.5
20260904155011 87 50 6.0 13.0 0.00 0.00 0.00 34 1017.5
20260904154510 87 42 7.0 13.0 0.00 0.00 0.00 32 1017.5
20260904153510 88 41 5.0 9.0 0.00 0.00 0.00 31 1017.5
20260904153019 88 51 5.0 8.0 0.00 0.00 0.00 32 1017.5
20260904152510 88 42 6.0 10.0 0.00 0.00 0.00 31 1017.5
20260904152017 88 45 5.0 10.0 0.00 0.00 0.00 31 1017.4
20260904151021 89 47 6.0 12.0 0.00 0.00 0.00 31 1017.5
20260904150510 88 40 6.0 15.0 0.00 0.00 0.00 32 1017.5
20260904150018 89 51 4.0 13.0 0.00 0.00 0.00 33 1017.5
20260904145510 88 36 4.0 9.0 0.00 0.00 0.00 33 1017.5
20260904144512 88 39 5.0 9.0 0.00 0.00 0.00 35 1017.4
20260904144012 88 45 7.0 12.0 0.00 0.00 0.00 35 1017.5
20260904143519 89 48 5.0 9.0 0.00 0.00 0.00 36 1017.4
20260904143019 88 30 2.0 12.0 0.00 0.00 0.00 38 1017.5
20260904142511 88 47 6.0 12.0 0.00 0.00 0.00 36 1017.5
20260904142013 88 47 6.0 10.0 0.00 0.00 0.00 37 1017.5
20260904141511 88 28 5.0 12.0 0.00 0.00 0.00 38 1017.5
20260904141018 89 43 6.0 9.0 0.00 0.00 0.00 37 1017.6
20260904140012 88 50 7.0 16.0 0.00 0.00 0.00 38 1017.5
20260904135510 88 45 3.0 13.0 0.00 0.00 0.00 39 1017.5
20260904135016 88 46 6.0 13.0 0.00 0.00 0.00 39 1017.5
20260904134511 88 44 7.0 12.0 0.00 0.00 0.00 39 1017.6
20260904134019 88 58 8.0 15.0 0.00 0.00 0.00 40 1017.5
20260904133510 88 40 8.0 13.0 0.00 0.00 0.00 40 1017.6
20260904133011 88 42 6.0 17.0 0.00 0.00 0.00 40 1017.5
20260904132019 89 39 6.0 12.0 0.00 0.00 0.00 41 1017.7
20260904131518 88 42 4.0 12.0 0.00 0.00 0.00 39 1017.8
20260904131013 88 45 9.0 14.0 0.00 0.00 0.00 41 1017.8
20260904130511 88 39 6.0 12.0 0.00 0.00 0.00 42 1017.9
20260904130019 88 44 6.0 12.0 0.00 0.00 0.00 44 1017.8
20260904125018 88 52 6.0 15.0 0.00 0.00 0.00 39 1017.9
20260904124518 88 47 5.0 15.0 0.00 0.00 0.00 42 1017.9
20260904122018 88 43 6.0 12.0 0.00 0.00 0.00 50 1018.1
20260904121518 88 43 3.0 12.0 0.00 0.00 0.00 48 1018.1
20260904121018 88 41 6.0 12.0 0.00 0.00 0.00 47 1018.1
20260904120517 88 41 6.0 10.0 0.00 0.00 0.00 50 1018.2
20260904120020 88 47 5.0 12.0 0.00 0.00 0.00 51 1018.2
20260904115519 87 35 7.0 13.0 0.00 0.00 0.00 51 1018.3
20260904114519 87 51 3.0 10.0 0.00 0.00 0.00 55 1018.3
20260904114011 87 38 6.0 13.0 0.00 0.00 0.00 53 1018.4
20260904113517 87 47 7.0 13.0 0.00 0.00 0.00 55 1018.5
20260904113018 86 44 5.0 9.0 0.00 0.00 0.00 56 1018.5
20260904112509 86 56 5.0 12.0 0.00 0.00 0.00 55 1018.6
20260904112018 88 49 3.0 12.0 0.00 0.00 0.00 55 1018.5